SBIRS GEO-6 (USA 336)

Last updated on Sat Jul 18 2026 00:03:05 GMT+0000 (Coordinated Universal Time)

1 53355U 22092A 26198.72080604 -.00000299 00000+0 00000+0 0 9998 2 53355 3.2070 318.0001 0001762 155.3169 220.7028 1.00270968 14542
UTC large
Height (km)
Speed (km/s)
/
Latitude / Longitude
Inclination (degrees)
Orbital Period (minutes)
Azimuth
Elevation
Range (km)
Doppler Factor

Next 0 passes for location: London (51.5072 / 0.1276)

No passes found over London.
SBIRS GEO-6 (USA 336)